Location: Unspecified
(0.0000°N, 0.0000°E)
Time: 01:44:52
(UTC+00:00)

COSMOS 2452 - Pass Details

Date: 23 May 2026
Orbit: 1481 x 1507 km, 82.5° (Epoch: 10 June)

Event Time Altitude Azimuth Distance (km) Brightness Sun altitude
Rises 02:33:58 0° 347° (NNW) 4,594 ? -46.4°
Reaches altitude 10° 02:36:54 10° 343° (NNW) 3,614 ? -45.8°
Enters shadow 02:37:29 12° 342° (NNW) 3,424 ? -45.7°
